Location: Wildlife_Club
(35.6000°N, 81.4330°W)
Time: 09:53:52
(UTC-04:00)

A-11 Canister half - Pass Details

Date: 20 June 2019
Orbit: 1526 x 1683 km, 47.3° (Epoch: 19 August)

Event Time Altitude Azimuth Distance (km) Brightness Sun altitude
Exits shadow 03:24:36 12° 153° (SSE) 3,595 10.6 -24.8°
Maximum altitude 03:28:51 17° 124° (SE) 3,251 10.6 -24.3°
Drops below altitude 10° 03:34:09 10° 89° (E) 3,726 11.4 -23.8°
Sets 03:38:39 0° 70° (ENE) 4,694 12.4 -23.3°
